FW0527 Weather Reports


Display with metric or nautical units.
time (UTC)temp
F
wind
direction
speed
MPH
gust
MPH
rain 1hr
in
rain 24hr
in
rain mn
in
humidity
%
barometer
mb
20260507071511 47 112 0.0 0.0 0.00 0.01 0.00 86 1017.3
20260507070017 47 112 0.0 0.0 0.00 0.01 0.00 86 1017.3
20260507064509 48 112 0.0 0.0 0.00 0.01 0.01 86 1017.4
20260507063016 48 112 0.0 0.0 0.00 0.01 0.01 86 1017.4
20260507061508 48 112 0.0 0.0 0.00 0.01 0.01 86 1017.3
20260507060008 49 112 0.0 0.0 0.00 0.01 0.01 86 1017.6
20260507054507 49 222 0.0 0.0 0.00 0.01 0.01 86 1017.6
20260507053007 49 305 0.0 0.0 0.00 0.01 0.01 85 1017.7
20260507051506 49 305 0.0 0.0 0.00 0.01 0.01 84 1017.6
20260507050013 50 305 0.0 0.0 0.00 0.01 0.01 84 1017.6
20260507044604 51 305 0.0 0.0 0.00 0.01 0.01 83 1017.6
20260507043004 51 305 0.0 0.0 0.00 0.01 0.01 81 1017.6
20260507041503 52 305 0.0 0.0 0.00 0.01 0.01 80 1017.6
20260507040005 53 305 0.0 0.0 0.00 0.01 0.01 79 1017.6
20260507034501 54 305 0.0 0.0 0.00 0.01 0.01 78 1017.5
20260507033004 55 305 0.0 0.0 0.00 0.01 0.01 76 1017.5
20260507031501 56 305 0.0 0.0 0.00 0.01 0.01 75 1017.4
20260507030101 57 305 0.0 0.0 0.00 0.01 0.01 75 1017.4
20260507024600 58 305 0.0 0.0 0.00 0.01 0.01 74 1017.1
20260507023107 59 305 0.0 0.0 0.00 0.01 0.01 73 1017.0
20260507021602 59 303 0.0 0.0 0.00 0.01 0.01 72 1017.1
20260507020100 60 302 0.0 0.0 0.00 0.01 0.01 71 1017.1
20260507014605 61 310 0.0 6.0 0.00 0.01 0.01 69 1017.0
20260507013057 62 298 0.0 0.0 0.00 0.01 0.01 68 1016.9
20260507011557 62 306 0.0 0.0 0.00 0.01 0.01 67 1017.0
20260507004555 63 294 0.0 0.0 0.00 0.01 0.01 65 1016.9
20260507003054 64 313 0.0 7.0 0.00 0.01 0.01 64 1016.8
20260507001602 64 310 0.0 1.0 0.00 0.01 0.01 63 1016.8
20260507000053 65 294 0.0 6.0 0.00 0.01 0.01 62 1016.8
20260506234553 65 314 0.0 8.0 0.00 0.01 0.01 60 1016.7
20260506233109 65 311 0.0 9.0 0.00 0.01 0.01 60 1016.7
20260506231551 66 286 0.0 8.0 0.00 0.01 0.01 59 1016.7
20260506230051 66 280 0.0 9.0 0.00 0.01 0.01 56 1016.8
20260506224550 67 288 0.0 10.0 0.00 0.01 0.01 55 1016.8
20260506223048 67 339 0.0 6.0 0.00 0.01 0.01 52 1016.9
20260506221547 68 279 0.0 12.0 0.00 0.01 0.01 50 1017.1
20260506220046 68 297 0.0 5.0 0.00 0.01 0.01 49 1017.2
20260506214545 69 248 0.0 7.0 0.00 0.01 0.01 49 1017.4
20260506213055 69 302 1.0 13.0 0.00 0.01 0.01 48 1017.4
20260506211544 70 309 0.0 2.0 0.00 0.01 0.01 48 1017.8
20260506210042 69 292 0.0 10.0 0.00 0.01 0.01 51 1017.9
20260506204547 69 273 0.0 5.0 0.00 0.01 0.01 50 1017.9
20260506203040 69 323 0.0 8.0 0.00 0.01 0.01 50 1018.1
20260506201538 68 326 0.0 5.0 0.00 0.01 0.01 50 1018.1
20260506200035 67 315 0.0 2.0 0.00 0.01 0.01 52 1018.4
20260506194537 67 284 0.0 7.0 0.00 0.01 0.01 53 1018.6
20260506193034 67 250 0.0 1.0 0.00 0.01 0.01 53 1018.7
20260506191532 67 328 0.0 9.0 0.00 0.01 0.01 52 1018.8
20260506190031 67 327 0.0 9.0 0.00 0.01 0.01 55 1018.9
20260506184529 66 313 0.0 9.0 0.00 0.01 0.01 53 1018.9
20260506183026 65 284 0.0 6.0 0.00 0.01 0.01 55 1018.9
20260506181521 63 306 0.0 10.0 0.00 0.01 0.01 59 1019.1
20260506180017 62 279 0.0 0.0 0.00 0.01 0.01 61 1019.2
20260506174515 61 321 0.0 10.0 0.00 0.03 0.01 63 1019.1
20260506173013 61 332 0.0 11.0 0.00 0.03 0.01 64 1019.3
20260506171511 60 303 0.0 9.0 0.00 0.03 0.01 66 1019.2
20260506170005 59 313 0.0 6.0 0.00 0.03 0.01 68 1019.1
20260506164500 57 300 0.0 0.0 0.00 0.04 0.01 72 1018.9
20260506163116 54 304 0.0 0.0 0.00 0.04 0.01 80 1019.0
20260506161552 51 306 0.0 0.0 0.00 0.04 0.01 89 1019.0
20260506160048 49 307 0.0 0.0 0.00 0.04 0.01 96 1019.0
20260506154605 47 308 0.0 0.0 0.00 0.08 0.01 96 1019.1
20260506153049 44 308 0.0 0.0 0.00 0.08 0.01 96 1019.2
20260506151535 42 308 0.0 0.0 0.00 0.08 0.01 95 1019.1
20260506150033 40 308 0.0 0.0 0.00 0.08 0.01 95 1019.0
20260506144531 40 308 0.0 0.0 0.00 0.10 0.01 94 1019.0
20260506143040 39 308 0.0 0.0 0.00 0.10 0.01 94 1018.9
20260506141532 38 308 0.0 0.0 0.00 0.10 0.01 93 1018.8
20260506140028 37 308 0.0 0.0 0.00 0.10 0.01 93 1019.0
20260506134526 37 308 0.0 0.0 0.00 0.16 0.01 92 1018.7
20260506133026 37 308 0.0 0.0 0.00 0.16 0.01 92 1018.6
20260506131524 37 308 0.0 0.0 0.00 0.16 0.01 92 1018.4
20260506130022 37 308 0.0 0.0 0.01 0.16 0.01 92 1018.0
20260506124520 37 308 0.0 0.0 0.01 0.23 0.01 92 1017.8
20260506123020 37 308 0.0 0.0 0.01 0.23 0.01 92 1017.8
20260506121519 37 308 0.0 0.0 0.01 0.23 0.01 92 1017.8
20260506120017 37 308 0.0 0.0 0.00 0.22 0.00 92 1017.7
20260506114517 37 308 0.0 0.0 0.00 0.26 0.00 92 1017.8
20260506113016 38 308 0.0 0.0 0.00 0.26 0.00 92 1017.8
20260506111514 37 308 0.0 0.0 0.00 0.26 0.00 92 1017.6
20260506110014 37 308 0.0 0.0 0.00 0.26 0.00 92 1017.5
20260506104512 37 308 0.0 0.0 0.00 0.30 0.00 91 1017.6
20260506103011 37 308 0.0 0.0 0.00 0.30 0.00 91 1017.5
20260506101510 37 308 0.0 0.0 0.00 0.30 0.00 90 1017.3
20260506100008 37 308 0.0 0.0 0.00 0.30 0.00 90 1017.3
20260506094506 37 308 0.0 0.0 0.00 0.36 0.00 90 1017.3
20260506093005 38 308 0.0 0.0 0.00 0.36 0.00 90 1017.3
20260506091501 39 308 0.0 0.0 0.00 0.36 0.00 90 1017.3
20260506090058 39 308 0.0 0.0 0.00 0.36 0.00 90 1017.5
20260506084557 39 308 0.0 0.0 0.00 0.37 0.00 90 1017.7
20260506083103 39 308 0.0 0.0 0.00 0.37 0.00 91 1017.9
20260506081553 39 308 0.0 0.0 0.00 0.37 0.00 90 1018.1
20260506073049 40 308 0.0 0.0 0.00 0.37 0.00 89 1018.3